This is the latest recevied weather packets stored in our database for station/object NC4M. If no packets are shown the sender has not sent any weather packets the latest 10 day(s).
| Time | Temp. | Humidity | Pressure | Rain* | Wind** | Luminosity | Snow |
|---|---|---|---|---|---|---|---|
| 1777524058 | 9.44° C | 74% | 1018.9 hPa | 0 mm | - | 0 W/m² | - |
| 1777523755 | 9.44° C | 77% | 1019 hPa | 0 mm | - | 0 W/m² | - |
| 1777523451 | 9.44° C | 76% | 1018.9 hPa | 0 mm | - | 0 W/m² | - |
| 1777523148 | 9.44° C | 75% | 1018.9 hPa | 0 mm | - | 0 W/m² | - |
| 1777522843 | 9.44° C | 75% | 1018.9 hPa | 0 mm | - | 0 W/m² | - |
| 1777522541 | 9.44° C | 76% | 1019.2 hPa | 0 mm | - | 0 W/m² | - |
| 1777522238 | 9.44° C | 74% | 1019.2 hPa | 0 mm | - | 0 W/m² | - |
| 1777521935 | 9.44° C | 75% | 1019 hPa | 0 mm | - | 0 W/m² | - |
| 1777521631 | 9.44° C | 78% | 1019.2 hPa | 0 mm | - | 0 W/m² | - |
| 1777521329 | 9.44° C | 76% | 1019.1 hPa | 0 mm | - | 0 W/m² | - |
| 1777521026 | 9.44° C | 77% | 1019 hPa | 0 mm | - | 0 W/m² | - |
| 1777520723 | 9.44° C | 76% | 1019.1 hPa | 0 mm | - | 0 W/m² | - |
| 1777520420 | 10° C | 75% | 1019.1 hPa | 0 mm | - | 0 W/m² | - |
| 1777520117 | 10° C | 75% | 1019.2 hPa | 0 mm | - | 0 W/m² | - |
| 1777519814 | 10° C | 76% | 1019.3 hPa | 0 mm | - | 0 W/m² | - |
| 1777519511 | 10° C | 75% | 1019.2 hPa | 0 mm | - | 0 W/m² | - |
| 1777519207 | 10° C | 78% | 1019.2 hPa | 0 mm | - | 0 W/m² | - |
| 1777518903 | 10° C | 77% | 1019.2 hPa | 0 mm | - | 0 W/m² | - |
| 1777518600 | 10° C | 79% | 1019.2 hPa | 0 mm | - | 0 W/m² | - |
| 1777518296 | 10° C | 81% | 1019.2 hPa | 0 mm | - | 0 W/m² | - |
| 1777517992 | 10° C | 77% | 1019.2 hPa | 0 mm | - | 0 W/m² | - |
| 1777517689 | 9.44° C | 80% | 1019.2 hPa | 0 mm | - | 0 W/m² | - |
| 1777517385 | 9.44° C | 78% | 1019.1 hPa | 0 mm | - | 0 W/m² | - |
| 1777517084 | 9.44° C | 81% | 1018.9 hPa | 0 mm | - | 0 W/m² | - |
| 1777516782 | 9.44° C | 80% | 1019.2 hPa | 0 mm | - | 0 W/m² | - |
* Rain latest hour (hover to see other rain measurements)
** Current wind speed in m/s (hover to see current wind gust speed)